Flag for United Kingdom Weather past 2 weeks in Swansea, Wales, United Kingdom

Now
59 °F

Cool.


Feels Like: 55 °F
Forecast: 56 / 63 °F
Wind: 25 mph from Southwest

Location: Mumbles

Current Time: Aug 5, 2015 at 4:21:55 AM

Latest Report: Aug 5, 2015 at 3:00 AM


Visibility: N/A

Pressure: 29.92 "Hg

Humidity: 83%

Dew point: 54 °F

Location of SwanseaLocation

Historic Weather in Swansea — Graph

°F

Swansea temperature yesterday

Maximum temperature yesterday: 62 °F (at 3:00 PM)
Minimum temperature yesterday: 57 °F (at 6:00 AM)
Average temperature yesterday: 60 °F

Past Weeks' High & Low Weather Summary

 TemperatureHumidityPressure
High67 °F (Aug 2, 1:00 PM)97% (Jul 26, 2:00 PM)30.20 "Hg (Jul 26, 2:00 PM)
Low49 °F (Jul 31, 3:00 AM)50% (Jul 29, 5:00 PM)29.38 "Hg (Jul 26, 8:00 PM)
Average59 °F78%29.91 "Hg
* Reported Jul 21 3:00 AM — Aug 5 3:00 AM, Swansea, Weather by CustomWeather, © 2015

Note: Actual official high and low records may vary slightly from our data, if they occured in-between our weather recording intervals... More about our weather records

Advertising

Swansea weather history for previous 24 hours

 ConditionsComfort  
Time TempWeatherWind HumidityBarometerVisibility
3:00 AM
Wed, Aug 5
59 °FCool.25 mph83%29.92 "HgN/A
2:00 AM60 °FCool.21 mph80%29.92 "HgN/A
1:00 AM60 °FCool.25 mph81%29.93 "HgN/A
12:00 AM60 °FCool.28 mph82%29.93 "HgN/A
11:00 PM
Tue, Aug 4
58 °FCool.22 mph80%29.94 "HgN/A
9:00 PM60 °FCool.23 mph82%29.94 "HgN/A
8:00 PM59 °FCool.25 mph85%29.94 "HgN/A
7:00 PM61 °FCool.28 mph77%29.93 "HgN/A
6:00 PM60 °FCool.24 mph79%29.93 "HgN/A
5:00 PM60 °FCool.29 mph86%29.93 "HgN/A
4:00 PM58 °FCool.38 mph90%29.92 "HgN/A
3:00 PM62 °FCool.36 mph79%29.90 "HgN/A
2:00 PM61 °FCool.26 mph86%29.90 "HgN/A
1:00 PM60 °FCool.36 mph81%29.88 "HgN/A
12:00 PM61 °FCool.35 mph79%29.88 "HgN/A
11:00 AM60 °FCool.32 mph85%29.86 "HgN/A
10:00 AM60 °FCool.35 mph80%29.85 "HgN/A
9:00 AM60 °FCool.36 mph80%29.83 "HgN/A
8:00 AM58 °FCool.33 mph84%29.83 "HgN/A
7:00 AM60 °FCool.33 mph82%29.81 "HgN/A
6:00 AM57 °FCool.31 mph94%29.80 "HgN/A
5:00 AM59 °FCool.32 mph90%29.79 "HgN/A
4:00 AM60 °FCool.37 mph76%29.78 "HgN/A
Weather by CustomWeather, © 2015

See weather overviewHow to use our weather pages